Location: Biltmore Gardens
(41.6070°N, 83.4666°W)
Time: 13:21:26
(UTC+00:00)

Terra - Pass Details

Date: 14 July 2020
Orbit: 701 x 703 km, 98.2° (Epoch: 05 August)

Event Time Altitude Azimuth Distance (km) Brightness Sun altitude
Exits shadow 03:56:54 41° 213° (SSW) 1,019 2.4 -22.4°
Maximum altitude 03:58:09 52° 260° (W) 870 2.3 -22.5°
Drops below altitude 10° 04:02:48 10° 337° (NNW) 2,178 5.5 -22.9°
Sets 04:05:08 0° 342° (NNW) 3,101 6.6 -23.1°
